This demonstration page uses our WeatherBlox Daily Observations layout. Learn more.

38.88101, -77.10428

Hourly Observations for January 30, 2020

Temp ( °F °C ) Dew Point ( °F °C ) Humidity (%) Winds ( mph kmh ) Pressure ( in mb ) Visibility ( mi km ) Precip ( " mm )
12:52 am 00:52 Partly Cloudy 36 2.2 21 -6.1 55 55 Calm 30.2 1023 10 16.0934 0 0
1:52 am 01:52 Partly Cloudy 33 0.6 24 -4.4 70 70 NE 5 7 30.2 1023 10 16.0934 0 0
2:52 am 02:52 Partly Cloudy 33 0.6 22 -5.6 64 64 NE 6 9 30.21 1023 10 16.0934 0 0
3:52 am 03:52 Partly Cloudy 32 0 20 -6.7 61 61 NNE 10 17 30.21 1023 10 16.0934 0 0
4:52 am 04:52 Partly Cloudy 32 0 22 -5.6 66 66 NE 8 13 30.21 1023 10 16.0934 0 0
5:52 am 05:52 Partly Cloudy 31 -0.6 20 -6.7 64 64 NNE 7 11 30.25 1024 10 16.0934 0 0
6:52 am 06:52 Mostly Cloudy 31 -0.6 19 -7.2 61 61 NE 8 13 30.26 1025 10 16.0934 0 0
7:52 am 07:52 Mostly Cloudy 31 -0.6 19 -7.2 61 61 NE 8 13 30.28 1025 10 16.0934 0 0
8:52 am 08:52 Mostly Cloudy 33 0.6 21 -6.1 61 61 NE 7 11 30.3 1026 10 16.0934 0 0
9:52 am 09:52 Mostly Cloudy 35 1.7 21 -6.1 57 57 NE 8 13 30.3 1026 10 16.0934 0 0
10:52 am 10:52 Cloudy 37 2.8 22 -5.6 54 54 NE 6 9 30.31 1026 10 16.0934 0 0
11:52 am 11:52 Cloudy 38 3.3 21 -6.1 51 51 NNE 5 7 30.31 1026 10 16.0934 0 0
12:52 pm 12:52 Mostly Cloudy 39 3.9 22 -5.6 50 50 NE 3 6 30.29 1026 10 16.0934 0 0
1:52 pm 13:52 Mostly Cloudy 43 6.1 21 -6.1 42 42 NNE 5 7 30.27 1025 10 16.0934 0 0
2:52 pm 14:52 Cloudy 42 5.6 18 -7.8 38 38 NNE 6 9 30.27 1025 10 16.0934 0 0
3:52 pm 15:52 Mostly Cloudy 42 5.6 20 -6.7 41 41 NE 5 7 30.27 1025 10 16.0934 0 0
4:52 pm 16:52 Mostly Cloudy 41 5 23 -5 49 49 ENE 8 13 30.27 1025 10 16.0934 0 0
5:52 pm 17:52 Mostly Cloudy 39 3.9 24 -4.4 55 55 E 8 13 30.29 1026 10 16.0934 0 0
6:52 pm 18:52 Cloudy 38 3.3 26 -3.3 62 62 E 7 11 30.31 1026 10 16.0934 0 0
7:52 pm 19:52 Cloudy 38 3.3 25 -3.9 60 60 E 5 7 30.31 1026 10 16.0934 0 0
8:52 pm 20:52 Cloudy 38 3.3 23 -5 55 55 NE 5 7 30.32 1027 10 16.0934 0 0
9:52 pm 21:52 Cloudy 37 2.8 25 -3.9 62 62 ENE 6 9 30.32 1027 10 16.0934 0 0
10:52 pm 22:52 Mostly Cloudy 36 2.2 25 -3.9 64 64 ENE 3 6 30.33 1027 10 16.0934 0 0
11:52 pm 23:52 Cloudy 36 2.2 25 -3.9 64 64 ENE 3 6 30.33 1027 10 16.0934 0 0

Powered by AerisWeather